[[{"header":{"parameterUnit":"m.s-1","parameterCategory":1,"la1":30.2991,"la2":30.254,"lo1":-89.0895,"lo2":-89.0444,"dy":0.0017,"dx":0.0017,"nx":28,"ny":28,"refTime":"2024-04-21T21:00:00:Z","depth":0,"parameterNumber":2,"parameterNumberName":"U-component_of_WINDS"},"data":[0,0,0,0,0,0,0,0,0,0,0,0,0,0,0,0,0,0,0,0,0,0,0,0,0,0,0,0,0,0,0,0,0,0,0,0,0,0,0,0,0,0,0,0,0,0,0,0,0,0,0,0,0,0,0,0,0,0,-2.0054,-2.0054,0,-2.0095,-2.0095,-2.0096,-2.0103,-2.0103,-2.0103,-2.0102,-2.0144,-2.0145,-2.0146,0,0,0,0,0,0,0,0,0,0,0,0,0,-1.9983,-1.9984,-2.0054,-2.0054,-2.0055,-2.0095,-2.0095,-2.0096,-2.0103,-2.0103,-2.0103,-2.0102,-2.0143,-2.0145,-2.0147,0,0,0,0,0,0,0,0,0,0,0,0,0,-2.0018,-1.9985,-2.0054,-2.0064,-2.0065,-2.0095,-2.0095,-2.0096,-2.0103,-2.0103,-2.0102,-2.0102,-2.0143,-2.0145,-2.0147,-2.017,0,0,-2.0153,-2.0154,0,0,0,0,0,0,0,0,-2.0016,-2.002,-2.0062,-2.0063,-2.0064,-2.0093,-2.0085,-2.0121,-2.0104,-2.0089,-2.0102,-2.0102,-2.0127,-2.0131,-2.0139,-2.0172,-2.0173,-2.0153,-2.0155,-2.0156,-2.0156,0,0,0,0,0,0,0,-2.0013,-2.0019,-2.007,-2.0062,-2.0064,-2.0066,-2.007,-2.0092,-2.011,-2.009,-2.0091,-2.0095,-2.0128,-2.0137,-2.014,-2.0174,-2.0153,-2.0155,-2.0157,-2.0157,-2.0228,-2.0228,0,0,0,0,0,0,-2.0009,-2.0017,-2.0069,-2.0071,-2.0038,-2.0068,-2.0073,-2.0085,-2.011,-2.0114,-2.0096,-2.0096,-2.0134,-2.0138,-2.0142,-2.017,-2.0156,-2.0158,-2.0159,-2.0227,-2.0228,-2.0228,0,0,0,0,0,0,-2.0008,-2.0014,-2.0067,-2.0044,-2.0051,-2.0069,-2.0083,-2.0086,-2.0095,-2.0114,-2.0118,-2.0102,-2.0134,-2.0139,-2.0163,-2.0172,-2.0159,-2.016,-2.0226,-2.0227,-2.0228,-2.0227,0,0,0,0,0,0,-2.0006,-2.0013,-2.0022,-2.0044,-2.0052,-2.0087,-2.0083,-2.0087,-2.0099,-2.0099,-2.0121,-2.0124,-2.0134,-2.016,-2.0165,-2.0175,-2.0162,-2.0226,-2.0227,-2.0228,-2.0227,-2.0228,-2.023,0,0,0,0,0,-2.0003,-2.002,-2.0022,-2.0029,-2.0064,-2.0088,-2.0092,-2.0103,-2.0099,-2.0108,-2.0121,-2.0124,-2.017,-2.0162,-2.0168,-2.0178,-2.0225,-2.0226,-2.0228,-2.0226,-2.0228,-2.023,0,0,0,0,0,0,-1.9998,-2.0023,-2.0026,-2.0051,-2.0067,-2.0089,-2.0101,-2.0105,-2.0122,-2.0122,-2.0134,-2.0139,-2.0162,-2.0173,-2.0163,-2.0202,-2.0197,-2.02,-2.0194,-2.0196,-2.0197,-2.0194,-2.0164,0,0,0,0,0,-2.0,-2.0017,-2.0038,-2.0058,-2.0066,-2.0082,-2.0093,-2.01,-2.0117,-2.0124,-2.0139,-2.0155,-2.0174,-2.0186,-2.0204,-2.0229,-2.0234,-2.0239,-2.024,-2.0241,-2.0243,-2.0257,-2.026,-2.0233,-2.0233,-2.0233,0,0,-2.0003,-2.0019,-2.0029,-2.0057,-2.0071,-2.0089,-2.0088,-2.0107,-2.012,-2.0127,-2.015,-2.0162,-2.0181,-2.0206,-2.0218,-2.0216,-2.0252,-2.0243,-2.0244,-2.0245,-2.0259,-2.0262,-2.0264,-2.0234,-2.0234,-2.0233,0,0,-2.0019,-2.0033,-2.0051,-2.0065,-2.0085,-2.0096,-2.01,-2.0122,-2.013,-2.0154,-2.016,-2.0176,-2.0208,-2.0221,-2.0233,-2.0255,-2.0258,-2.026,-2.0267,-2.0281,-2.0283,-2.0285,-2.0293,-2.0295,-2.0262,-2.0262,-2.0262,0,-2.0021,-2.0048,-2.006,-2.0078,-2.0091,-2.0098,-2.0117,-2.013,-2.0155,-2.0163,-2.0161,-2.0201,-2.0215,-2.0243,-2.0249,-2.0258,-2.0263,-2.0257,-2.0282,-2.0284,-2.0286,-2.0293,-2.0296,-2.0263,-2.0263,-2.0263,-2.0263,0,-2.0049,-2.0068,-2.008,-2.0105,-2.0118,-2.0137,-2.0152,-2.0164,-2.017,-2.0181,-2.0206,-2.0223,-2.0245,-2.0252,-2.0258,-2.0281,-2.0279,-2.0279,-2.0274,-2.0288,-2.0295,-2.0298,-2.0263,-2.0263,-2.0263,-2.0263,0,0,-2.0061,-2.0093,-2.0097,-2.0109,-2.0133,-2.0147,-2.0167,-2.0188,-2.0199,-2.0216,-2.0233,-2.026,-2.026,-2.0273,-2.0281,-2.0293,-2.0309,-2.0292,-2.0292,-2.0294,-2.0336,-2.0335,-2.0338,-2.0312,-2.0313,-2.0313,-2.0334,0,-2.008,-2.0114,-2.0125,-2.0154,-2.0171,-2.018,-2.0196,-2.0213,-2.0224,-2.0241,-2.0253,-2.0272,-2.0271,-2.0279,-2.0291,-2.0305,-2.0318,-2.0303,-2.0327,-2.0328,-2.0321,-2.0342,-2.0341,-2.036,-2.0337,-2.0337,-2.0338,0,-2.0105,-2.0123,-2.0153,-2.0175,-2.0183,-2.0198,-2.0219,-2.0235,-2.0254,-2.0262,-2.0276,-2.0283,-2.0304,-2.0299,-2.0328,-2.0318,-2.0328,-2.0336,-2.0337,-2.0339,-2.0333,-2.0344,-2.0366,-2.0368,-2.0342,-2.0342,-2.0342,0,-2.0111,-2.0143,-2.0165,-2.0175,-2.0201,-2.0211,-2.0223,-2.0242,-2.0254,-2.0273,-2.0281,-2.0302,-2.0313,-2.0329,-2.0341,-2.0337,-2.0369,-2.0365,-2.0375,-2.0375,-2.0381,-2.038,-2.0404,-2.0389,-2.0389,-2.0389,-2.0389,0,-2.0129,-2.0147,-2.0168,-2.0181,-2.0202,-2.0215,-2.0236,-2.0248,-2.0264,-2.0281,-2.0289,-2.0304,-2.0321,-2.0338,-2.0348,-2.037,-2.0375,-2.0382,-2.0384,-2.0381,-2.038,-2.0387,-2.0386,-2.039,-2.0389,-2.0389,-2.0389,0,-2.0138,-2.0153,-2.0178,-2.0201,-2.0207,-2.0221,-2.0241,-2.0255,-2.0267,-2.0287,-2.0293,-2.0311,-2.0332,-2.0347,-2.0374,-2.0381,-2.0404,-2.0407,-2.0398,-2.0399,-2.0408,-2.0407,-2.0437,-2.0442,-2.0424,-2.0424,-2.0424,0,-2.0149,-2.0163,-2.0188,-2.0199,-2.0211,-2.0229,-2.0242,-2.0256,-2.0269,-2.0293,-2.0304,-2.0325,-2.0343,-2.0376,-2.0392,-2.0413,-2.0416,-2.0425,-2.0419,-2.0415,-2.0415,-2.0414,-2.0415,-2.0425,-2.0426,-2.0426,-2.0426,0,-2.0166,-2.0173,-2.0191,-2.0212,-2.0227,-2.0244,-2.0261,-2.027,-2.0287,-2.0302,-2.0323,-2.0337,-2.0365,-2.0386,-2.0408,-2.0421,-2.0426,-2.0428,-2.0431,-2.0427,-2.0421,-2.0424,-2.04,-2.0427,-2.0427,-2.0427,-2.0427,-2.0427,-2.0176,-2.0189,-2.0209,-2.0229,-2.0243,-2.0259,-2.0273,-2.0287,-2.0305,-2.0328,-2.0336,-2.0358,-2.0378,-2.0409,-2.0421,-2.0439,-2.0438,-2.0443,-2.0445,-2.0445,-2.0445,-2.0419,-2.0443,-2.0443,-2.0443,-2.0443,-2.0443,0,-2.0193,-2.0207,-2.0225,-2.0249,-2.0264,-2.0269,-2.0288,-2.0301,-2.0321,-2.0338,-2.0356,-2.0381,-2.0402,-2.042,-2.0441,-2.0452,-2.0455,-2.0457,-2.0456,-2.0459,-2.0445,-2.0439,-2.0455,-2.0455,-2.0455,-2.0455,-2.0455,-2.0455,-2.0204,-2.0226,-2.0235,-2.0265,-2.0278,-2.03,-2.031,-2.0325,-2.034,-2.0367,-2.0384,-2.0396,-2.0414,-2.0437,-2.0457,-2.0462,-2.0469,-2.047,-2.0476,-2.0462,-2.046,-2.0459,-2.0454,-2.0472,-2.0472,-2.0489,-2.0489,-2.0489]},{"header":{"parameterUnit":"m.s-1","parameterCategory":1,"la1":30.2991,"la2":30.254,"lo1":-89.0895,"lo2":-89.0444,"dy":0.0017,"dx":0.0017,"nx":28,"ny":28,"refTime":"2024-04-21T21:00:00:Z","depth":0,"parameterNumber":3,"parameterNumberName":"V-component_of_WINDS"},"data":[0,0,0,0,0,0,0,0,0,0,0,0,0,0,0,0,0,0,0,0,0,0,0,0,0,0,0,0,0,0,0,0,0,0,0,0,0,0,0,0,0,0,0,0,0,0,0,0,0,0,0,0,0,0,0,0,0,0,4.3215,4.3216,0,4.3276,4.3277,4.3278,4.3291,4.329,4.329,4.329,4.3347,4.3349,4.3351,0,0,0,0,0,0,0,0,0,0,0,0,0,4.3105,4.3107,4.3215,4.3216,4.3217,4.3276,4.3277,4.3278,4.3291,4.329,4.329,4.3289,4.3346,4.3349,4.3351,0,0,0,0,0,0,0,0,0,0,0,0,0,4.3158,4.3108,4.3215,4.323,4.3233,4.3276,4.3277,4.3278,4.3291,4.329,4.329,4.3289,4.3346,4.3348,4.3351,4.3382,0,0,4.336,4.3361,0,0,0,0,0,0,0,0,4.3155,4.3162,4.3227,4.323,4.3232,4.3276,4.3259,4.3313,4.3291,4.3269,4.329,4.3289,4.3323,4.3328,4.3341,4.3385,4.3387,4.336,4.3362,4.3363,4.3364,0,0,0,0,0,0,0,4.3151,4.316,4.3239,4.3228,4.3231,4.3233,4.324,4.327,4.3299,4.3271,4.3272,4.3279,4.3324,4.3338,4.3342,4.3388,4.336,4.3363,4.3365,4.3366,4.3461,4.3462,0,0,0,0,0,0,4.3146,4.3156,4.3237,4.3241,4.3191,4.3235,4.3243,4.3262,4.3299,4.3304,4.328,4.3279,4.3333,4.3339,4.3344,4.3384,4.3363,4.3366,4.3368,4.3461,4.3462,4.3462,0,0,0,0,0,0,4.3143,4.3153,4.3235,4.3199,4.321,4.3238,4.3259,4.3264,4.3277,4.3305,4.331,4.3288,4.3333,4.334,4.3373,4.3386,4.3367,4.337,4.346,4.3461,4.3462,4.3462,0,0,0,0,0,0,4.314,4.3152,4.3165,4.3199,4.3212,4.3264,4.326,4.3265,4.3283,4.3283,4.3315,4.3319,4.3333,4.3369,4.3376,4.3389,4.3372,4.3459,4.346,4.3462,4.3461,4.3463,4.3464,0,0,0,0,0,4.3136,4.3161,4.3165,4.3175,4.3229,4.3265,4.3271,4.3288,4.3284,4.3296,4.3315,4.3318,4.3383,4.3372,4.338,4.3395,4.3458,4.346,4.3462,4.346,4.3462,4.3464,0,0,0,0,0,0,4.3125,4.3166,4.3171,4.3208,4.3233,4.3267,4.3283,4.329,4.3315,4.3314,4.3333,4.334,4.3372,4.3386,4.3373,4.3427,4.342,4.3424,4.3416,4.3419,4.342,4.3416,4.3375,0,0,0,0,0,4.3127,4.3154,4.3188,4.3217,4.323,4.3254,4.3271,4.3282,4.3307,4.3317,4.3338,4.3362,4.3387,4.3404,4.3429,4.3463,4.347,4.3477,4.3479,4.348,4.3483,4.3502,4.3506,4.3468,4.3468,4.3468,0,0,4.3131,4.3157,4.3172,4.3216,4.3236,4.3263,4.3263,4.3291,4.3311,4.3321,4.3354,4.337,4.3398,4.3432,4.3447,4.3445,4.3495,4.3482,4.3483,4.3485,4.3504,4.3508,4.3511,4.347,4.3469,4.3469,0,0,4.3152,4.3174,4.3202,4.3223,4.3255,4.3272,4.3278,4.3312,4.3323,4.3357,4.3366,4.3389,4.3433,4.3452,4.3468,4.3498,4.3502,4.3506,4.3515,4.3534,4.3537,4.354,4.355,4.3554,4.3508,4.3508,4.3508,0,4.3152,4.3195,4.3214,4.3243,4.3261,4.3275,4.3302,4.3321,4.3359,4.3371,4.3368,4.3424,4.3443,4.3482,4.349,4.3502,4.351,4.3502,4.3535,4.3538,4.3541,4.3551,4.3555,4.3508,4.3508,4.3508,4.3508,0,4.3193,4.3223,4.3241,4.328,4.33,4.3328,4.3351,4.3369,4.3378,4.3395,4.3429,4.3453,4.3484,4.3494,4.3502,4.3534,4.3532,4.3532,4.3525,4.3544,4.3554,4.3559,4.3509,4.3509,4.3509,4.3509,0,0,4.3208,4.3259,4.3265,4.3283,4.332,4.3343,4.3371,4.3403,4.3418,4.3444,4.3467,4.3505,4.3506,4.3524,4.3534,4.3551,4.3574,4.3549,4.355,4.3553,4.361,4.361,4.3614,4.3577,4.3578,4.3579,4.3608,0,4.3233,4.3286,4.3305,4.3348,4.3375,4.3388,4.3413,4.3437,4.3454,4.3478,4.3495,4.3522,4.3521,4.3532,4.3549,4.3567,4.3585,4.3566,4.3598,4.3599,4.3591,4.362,4.3619,4.3646,4.3612,4.3613,4.3613,0,4.327,4.3299,4.3345,4.338,4.3392,4.3414,4.3445,4.3469,4.3497,4.3508,4.3528,4.3539,4.3567,4.356,4.36,4.3586,4.36,4.3611,4.3613,4.3616,4.3607,4.3624,4.3655,4.3659,4.362,4.3619,4.3619,0,4.3276,4.3326,4.3361,4.3376,4.3417,4.3432,4.345,4.3478,4.3496,4.3523,4.3535,4.3564,4.358,4.3602,4.3619,4.3612,4.3657,4.3651,4.3666,4.3666,4.3675,4.3674,4.3708,4.3684,4.3684,4.3684,4.3684,0,4.3303,4.333,4.3364,4.3385,4.3416,4.3438,4.3468,4.3486,4.3511,4.3535,4.3547,4.3569,4.3591,4.3616,4.3629,4.366,4.3667,4.3676,4.3679,4.3675,4.3673,4.3684,4.3682,4.3685,4.3685,4.3685,4.3685,0,4.3314,4.3339,4.3377,4.3414,4.3424,4.3445,4.3476,4.3497,4.3514,4.3544,4.3552,4.3579,4.3609,4.3629,4.3666,4.3675,4.3709,4.3712,4.37,4.3701,4.3715,4.3714,4.3758,4.3764,4.3736,4.3736,4.3736,0,4.333,4.3352,4.3392,4.341,4.3428,4.3457,4.3477,4.3498,4.3518,4.3553,4.3568,4.3599,4.3625,4.3672,4.3693,4.3722,4.3726,4.3739,4.373,4.3725,4.3726,4.3724,4.3727,4.374,4.374,4.3741,4.3741,0,4.3354,4.3366,4.3394,4.3428,4.3451,4.3478,4.3505,4.3518,4.3544,4.3566,4.3597,4.3617,4.3657,4.3687,4.3718,4.3734,4.3742,4.3744,4.3749,4.3744,4.3737,4.3741,4.3704,4.3742,4.3742,4.3742,4.3742,4.3742,4.3368,4.3389,4.3421,4.3453,4.3476,4.3501,4.3522,4.3543,4.3571,4.3606,4.3617,4.3649,4.3677,4.372,4.3737,4.3762,4.3761,4.3768,4.377,4.3771,4.3771,4.3733,4.3768,4.3768,4.3768,4.3768,4.3768,0,4.3394,4.3416,4.3445,4.3483,4.3508,4.3515,4.3545,4.3565,4.3594,4.3621,4.3647,4.3683,4.3713,4.3738,4.3768,4.3783,4.3787,4.3791,4.3789,4.3793,4.3771,4.3763,4.3787,4.3787,4.3787,4.3787,4.3787,4.3787,4.341,4.3445,4.3461,4.3507,4.3528,4.3562,4.3579,4.3602,4.3623,4.3664,4.369,4.3706,4.3732,4.3765,4.3792,4.3799,4.3809,4.3811,4.3819,4.3797,4.3795,4.3793,4.3786,4.3814,4.3814,4.3839,4.3839,4.3839]}]]